Weather in Texas City

United States     29°23′02″N   94°54′08″W
В апреле 2022 года жителям России запретили посещать сайт meteo.paraplan.net по решению Генеральной прокуратуры. Аудитория сайта уменьшилась в 10 раз. Владельцы сайта не видят смысла в поддержке погодного сервера в таких условиях. Сайт будет закрыт в октябре.
temp.,
°C
wind,
m/s
gust,
m/s
humid.,
%
clouds,
%
prec.,
mm/h
press.,
hPa
HPBL,
m
4 october, tue
tue401:00+23ne2450100 0.0 1018118
04:00+22e3567100 0.0 1017192
07:00+21ene3565100 0.0 1018177
10:00+23ene3354100 0.0 1019370
13:00+26ene3343100 0.0 1018755
16:00+27e333968 0.0 10161101
19:00+23se345477 0.0 1016179
22:00+23se246330 0.0 1017100
5 october, wed
wed501:00+22sse11675 0.0 101715
04:00+21ene11682 0.0 101733
07:00+21nne22730 0.0 101875
10:00+24ne22570 0.0 1019419
13:00+27e33490 0.0 10181116
16:00+27se44480 0.0 10161148
19:00+24se46670 0.0 1016260
22:00+23s357639 0.0 1018162
6 october, thu
thu601:00+23sse23790 0.0 101878
04:00+22wsw11791 0.0 101812
07:00+21n22800 0.0 101949
10:00+25ne32652 0.0 1021455
13:00+28e3348100 0.0 10201239
16:00+28se5345100 0.0 10181065
19:00+25s466999 0.0 1019255
22:00+23ssw3677100 0.0 1020156
7 october, fri
fri701:00+23ssw247798 0.0 1020107
04:00+23nnw1275100 0.0 102036
07:00+23nnw1173100 0.0 102125
10:00+26nne2260100 0.0 1022398
13:00+28ene334798 0.0 10211184
16:00+28ese224392 0.0 10191112
19:00+25sse3460100 0.0 1019128
22:00+24ssw2364100 0.0 102182
8 october, sat
sat801:00+24wsw226999 0.0 102160
04:00+23nnw2267100 0.0 102141
07:00+22n2366100 0.0 1022102
10:00+25ne455263 0.0 1023377
13:00+28ese34395 0.0 1022787
16:00+28se44404 0.0 1020832
19:00+25sse23564 0.0 1020132
22:00+24se24647 0.0 1021111